Regional Weather Roundup
Issued by NWS Cleveland, OH

Home | Current Version | Previous Version | Text Only | Print | Product List | Glossary On
Versions: 1 2 3 4 5 6 7 8 9 10 11 12 13 14 15 16 17 18 19 20 21 22 23 24 25 26 27 28 29 30 31 32 33 34 35 36 37 38 39 40 41 42 43 44 45 46 47 48 49 50
000
ASUS41 KCLE 301902
RWRCLE
OHIO REGIONAL WEATHER ROUNDUP
NATIONAL WEATHER SERVICE CLEVELAND, OH
300 PM EDT SUN APR 30 2017

NOTE: "FAIR" INDICATES FEW OR NO CLOUDS BELOW 12,000 FEET WITH NO
SIGNIFICANT WEATHER AND/OR OBSTRUCTIONS TO VISIBILITY.

OHZ001>008-015>018-024>027-034-035-043-044-302000-
   NORTHWEST OHIO

CITY           SKY/WX    TMP DP  RH WIND       PRES   REMARKS
DEFIANCE       CLOUDY    64  61  90 E7        29.84F
FINDLAY        CLOUDY    75  63  66 S16G24    29.86S
TOLEDO EXPRESS CLOUDY    57  53  86 E8        29.87F
TOLEDO EXEC    CLOUDY    54  51  90 E9        29.89F
LIMA           CLOUDY    74  65  73 S14G21    29.86F
$$

OHZ009>014-019>023-028>033-038-089-302000-
   NORTHEAST OHIO

CITY           SKY/WX    TMP DP  RH WIND       PRES   REMARKS
CLE-HOPKINS    CLOUDY    84  61  45 SW16G33   29.89F
CLE-LAKEFRONT  CLOUDY    84  63  49 S14G25    29.86F
CUY CO. ARPT   PTSUNNY   84  66  54 SW14G23   29.89F
LORAIN-ELYRIA  PTSUNNY   82  62  50 SW25G36   29.88S
ASHTABULA      MOSUNNY   83  60  45 SW20G33   29.91F
AKRON-CANTON   PTSUNNY   83  61  47 SW28G44   29.93F
WOOSTER        MOSUNNY   81  62  52 SW30G39   29.92F
MANSFIELD      CLOUDY    81  63  54 S23G29    29.92S
YOUNGSTOWN     PTSUNNY   83  62  49 S13G26    29.93F
$$

OHZ042-051>053-060>062-070>072-077>081-302000-
  SOUTHWEST OHIO

CITY           SKY/WX    TMP DP  RH WIND       PRES   REMARKS
CINC-COVINGTON CLOUDY    80  65  59 S15G31    29.88F
CINC-LUNKEN    CLOUDY    81  69  67 S21G30    29.88F
HAMILTON       CLOUDY    81  67  62 VRB7      29.88F
DAYTON         CLOUDY    76  65  68 S16G24    29.88F
WRIGHT-PAT AFB CLOUDY    79  67  66 S20G31    29.88F
DAYTON GENERAL CLOUDY    79  65  62 S17G25    29.88F
WILMINGTON     CLOUDY    79  69  71 S17G30    29.90F
$$

OHZ036-037-039>041-045>050-054>059-063>069-073>076-082>088-302000-
  CENTRAL AND SOUTHEAST OHIO

CITY           SKY/WX    TMP DP  RH WIND       PRES   REMARKS
COLUMBUS       CLOUDY    81  66  60 S15G25    29.93F
OSU AIRPORT    PTSUNNY   81  67  62 S21G30    29.91F
BOLTON FIELD   CLOUDY    81  66  61 SW21G35   29.93F
RICKENBACK AFB PTSUNNY   79  68  69 S13       29.92F
NEWARK         TSTM      71  65  81 S10       29.95S
MARION         CLOUDY    80  62  54 SW22G32   29.90F
LANCASTER      LGT RAIN  77  69  76 SW9       29.95F
ZANESVILLE     MOSUNNY   85  62  46 SW12G24   29.94F
NEW PHILLY     NOT AVBL
$$



USA.gov is the U.S. government's official web portal to all federal, state and local government web resources and services.